Regional Weather Roundup
Issued by NWS

Home | Current Version | Previous Version | Graphics & Text | Print | Product List | Glossary On
Versions: 1 2 3 4 5 6 7 8 9 10 11 12 13 14 15 16 17 18 19 20 21 22 23 24 25 26 27 28 29 30 31 32 33 34 35 36 37 38 39 40 41 42 43 44 45 46 47 48 49 50
631
ASUS43 KIND 221900
RWRIN

WEATHER ROUNDUP FOR INDIANA
NATIONAL WEATHER SERVICE INDIANAPOLIS IN
300 PM EDT FRI SEP 22 2017

NOTE: "FAIR" INDICATES FEW OR NO CLOUDS BELOW 12,000 FEET WITH NO
SIGNIFICANT WEATHER AND/OR OBSTRUCTIONS TO VISIBILITY.

* - STATION DOES NOT REPORT WEATHER SUCH AS PRECIPITATION OR FOG.

+ - STATION NOT QUALITY CONTROLLED BY THE NATIONAL WEATHER SERVICE.
    USE DATA WITH CAUTION...ESPECIALLY DEWPOINT AND RELATIVE
    HUMIDITY OBSERVATIONS.

INZ001>003-010>013-019-020-222000-
NORTHWEST INDIANA

CITY           SKY/WX    TMP DP  RH WIND       PRES   REMARKS
GARY /AIRPORT/ MOSUNNY   93  61  33 SE9       30.06F
MICHIGAN CITY+ SUNNY     90  66  45 SW9       30.07F
MONTICELLO +   SUNNY     92  67  43 CALM      30.06F HX  95
RENSSELAER +   SUNNY     90  52  27 S3        30.07F

$$

LMZ046-743>745-222000-
SOUTHERN LAKE MICHIGAN

STATION/POSITION TIME  TEMP    WIND        PRES    WAVE
                       AIR SEA DIR/SP/G            HT
                 (UTC) (F)     (DEG/KT/KT) (MB)    (FT)
BURNS HARBOR     1840   85      40/  6/  8 1017.9F
MICHIGAN CITY    1830   81      40/  7/  9   N/A
5NW MICH CITY    1850   80 75   60/  4/  4   N/A     0

$$

INZ004-005-014>016-021>024-222000-
NORTH CENTRAL INDIANA

CITY           SKY/WX    TMP DP  RH WIND       PRES   REMARKS
GOSHEN         MOSUNNY   91  65  41 E3        30.08F
SOUTH BEND     SUNNY     89  67  47 NW5       30.08F

$$

INZ006>009-017-018-025>027-222000-
NORTHEAST INDIANA

CITY           SKY/WX    TMP DP  RH WIND       PRES   REMARKS
FORT WAYNE     MOSUNNY   91  69  48 N3        30.09F HX  96
KENDALLVILLE + SUNNY     89  68  50 CALM      30.10F

$$

INZ028-029-035-036-043>045-051>053-222000-
WEST CENTRAL INDIANA

CITY           SKY/WX    TMP DP  RH WIND       PRES   REMARKS
GREENCASTLE +  MOSUNNY   88  64  45 SE5       30.08F
LAFAYETTE      SUNNY     90  69  50 CALM      30.06F
TERRE HAUTE    MOSUNNY   92  65  40 MISG      30.06F

$$

INZ030>032-037>040-046>048-054>057-064-065-222000-
CENTRAL INDIANA

CITY           SKY/WX    TMP DP  RH WIND       PRES   REMARKS
ANDERSON       MOSUNNY   90  68  48 CALM      30.09
COLUMBUS       PTSUNNY   86  61  42 CALM      30.07F
GREENWOOD *+   MOSUNNY   94  72  47 CALM      30.08F HX 101
INDIANAPOLIS   MOSUNNY   90  66  45 E6        30.07F
-EAGLE CREEK   MOSUNNY   89  65  44 N5        30.06F
KOKOMO +       PTSUNNY   90  68  48 SE3       30.09F
MT COMFORT *+  MOSUNNY   90  68  48 CALM      30.08F
SHELBYVILLE    MOSUNNY   90  65  43 E5        30.06F

$$

INZ033-034-041-042-049-050-058-059-222000-
EAST CENTRAL INDIANA

CITY           SKY/WX    TMP DP  RH WIND       PRES   REMARKS
MUNCIE         MOSUNNY   93  66  40 VRB7      30.08F HX  96
RICHMOND +     MOSUNNY   86  68  54 CALM      30.10F

$$

INZ060-061-067>069-081>083-085>088-222000-
SOUTHWEST INDIANA

CITY           SKY/WX    TMP DP  RH WIND       PRES   REMARKS
EVANSVILLE     MOSUNNY   90  68  48 E7        30.05F
HUNTINGBURG +  SUNNY     89  70  53 SE6       30.06F

$$

INZ062-063-066-070>080-084-089>092-222000-
SOUTH CENTRAL AND SOUTHEAST INDIANA

CITY           SKY/WX    TMP DP  RH WIND       PRES   REMARKS
BLOOMINGTON    MOSUNNY   91  65  41 VRB7      30.07F
MADISON *+     PTSUNNY   90  64  43 E6        30.10S
SEYMOUR +      MOSUNNY   91  66  43 CALM      30.06F

$$





USA.gov is the U.S. government's official web portal to all federal, state and local government web resources and services.